Location: Engazz�
(45.2000°N, 11.0500°E)
Time: 20:10:36
(UTC+00:00)

Daily predictions for brighter satellites

Satellite Brightness Start Highest point End
(mag) Time Altitude Azimuth Time Altitude Azimuth Time Altitude Azimuth
Cosmos 2208 Rocket 4.1 16:02:39 10° S 16:07:50 68° ESE 16:13:09 10° NNE
Cosmos 1125 Rocket 4.2 16:04:20 10° N 16:08:58 31° ENE 16:13:35 10° ESE
Cosmos 1633 3.9 16:06:02 10° NNW 16:09:28 44° W 16:12:53 10° SSW
Cosmos 2219 Rocket 2.3 16:06:42 10° SSW 16:12:22 87° WNW 16:18:04 10° NNE
Cosmos 2221 2.5 16:10:29 10° S 16:14:48 68° E 16:19:07 10° NNE
CZ-4B R/B 3.2 16:10:22 10° SSE 16:15:35 56° ENE 16:20:47 10° N
Cosmos 1500 Rocket 3.7 16:12:41 10° N 16:17:00 54° ENE 16:21:19 10° SSE
Abrixas rocket 1.7 16:14:28 10° WNW 16:17:13 71° NNE 16:19:59 10° ESE
Cosmos 1939 Rocket 4.3 16:15:06 10° ESE 16:17:37 17° ENE 16:20:10 10° NNE
SL-16 R/B 4.4 16:14:20 10° W 16:18:12 18° NW 16:22:04 10° N
NOAA 12 4.2 16:14:20 10° SSE 16:19:31 56° ENE 16:24:44 10° N
ERS-2 3.5 16:17:34 10° NE 16:20:19 20° E 16:23:03 10° SE
Cosmos 2237 Rocket 2.8 16:15:17 10° S 16:20:24 37° ESE 16:25:32 10° NE
ISS -2.9 16:20:03 10° SSW 16:23:10 37° SE 16:26:06 11° ENE
Cosmos 1869 3.9 16:19:42 10° SSW 16:23:41 61° W 16:27:45 10° N
USA 267 3.6 16:20:09 10° E 16:26:18 46° NNE 16:32:28 10° NW
YAOGAN 1 4.4 16:26:41 10° E 16:28:21 12° ENE 16:30:02 10° NE
Cosmos 540 Rocket 4.1 16:23:52 10° SW 16:28:55 58° WNW 16:33:59 10° NNE
CZ-4B R/B 2.4 16:27:17 10° NE 16:29:50 24° E 16:32:25 10° SSE
Cosmos 2369 Rocket 4.0 16:31:36 10° NNE 16:33:22 11° NE 16:34:50 10° NE
Okean-O 4.1 16:30:45 10° E 16:33:30 16° ENE 16:36:15 10° NNE
AQUARIUS 4.1 16:29:24 10° SSE 16:33:50 66° ENE 16:38:19 10° N
Meteor 2-2 Rocket 4.4 16:28:57 10° S 16:34:56 90° E 16:40:52 10° N
NOSS 2-1 (E) 4.4 16:29:58 10° NW 16:35:12 79° NE 16:42:38 10° SE
Cosmos 841 Rocket 4.3 16:32:08 10° SW 16:37:14 52° WNW 16:42:20 10° NNE
CRYOSAT 2 4.4 16:32:26 10° NNE 16:37:17 60° E 16:42:06 10° S
COSMO-SKYMED 1 3.7 16:34:29 10° NE 16:38:03 24° E 16:41:35 10° SSE
CORIOLIS 4.1 16:32:46 10° SSE 16:38:08 72° ENE 16:43:34 10° N
Cosmos 1980 3.9 16:32:41 10° S 16:38:12 56° ESE 16:43:45 10° NNE
Cosmos 1743 Rocket 3.6 16:34:28 10° N 16:38:58 86° W 16:43:25 10° S
Envisat 3.6 16:34:00 10° S 16:39:00 61° WSW 16:44:04 10° NNW
H-2A R/B 3.5 16:37:39 10° S 16:41:56 54° W 16:46:07 10° NNW
H-2A R/B 3.4 16:42:58 13° E 16:45:31 17° ENE 16:48:52 10° NNE
Okean O Rocket 1.6 16:41:57 10° SSE 16:46:18 90° WSW 16:50:41 10° NNW
Nadezhda 1 Rocket 4.0 16:40:28 10° S 16:46:46 84° E 16:53:13 10° N
Sich 1 3.2 16:46:36 10° N 16:50:52 47° ENE 16:55:05 10° SSE
Cosmos 2292 4.2 16:50:12 10° S 16:53:12 89° SW 16:56:43 10° N
Cosmos 1933 4.3 16:50:22 10° SSE 16:53:44 26° E 16:55:34 19° NE
Cosmos 405 Rocket 3.3 16:51:21 10° NNW 16:55:12 62° W 16:59:06 10° S
Cosmos 2297 4.4 16:52:46 10° N 16:57:53 33° NE 17:02:18 13° ESE
Cosmos 2154 Rocket 4.2 16:52:07 10° N 16:58:27 81° W 17:04:48 10° S
Cosmos 1805 Rocket 3.5 16:54:47 10° N 16:59:16 79° E 17:03:43 10° SSE
YAOGAN 6 4.4 16:55:59 10° SSW 16:59:21 35° W 17:02:44 10° NNW
Cosmos 962 Rocket 4.4 16:56:38 10° N 17:02:57 69° E 17:09:09 10° SSE
SMAP 3.9 17:00:33 10° S 17:05:06 54° W 17:09:41 10° NNW
Cosmos 1666 Rocket 3.8 17:01:05 10° N 17:05:17 43° ENE 17:09:30 10° SSE
Cosmos 2341 Rocket 4.0 16:59:37 10° N 17:05:53 65° E 17:12:08 10° SSE
Helios 1A Rocket 3.7 17:03:20 15° ESE 17:05:58 29° ENE 17:09:27 10° N
USA 281 3.3 17:00:06 10° SE 17:06:23 51° ENE 17:12:42 10° NNW
Cosmos 1943 Rocket 3.2 17:02:30 10° N 17:06:57 24° NE 17:07:55 23° ENE
SL-16 R/B 2.9 17:02:32 10° SSE 17:07:30 32° ESE 17:09:55 23° ENE
Cosmos 1151 Rocket 3.7 17:04:50 10° SSE 17:08:38 32° E 17:09:51 27° ENE
Cosmos 1328 Rocket 4.2 17:07:38 10° SSE 17:11:24 30° E 17:11:48 29° E
ARGOS 4.4 17:15:45 22° NE 17:15:45 22° NE 17:18:59 10° NNE
MOS 1 Rocket 4.3 17:14:13 23° NE 17:16:39 32° E 17:21:29 10° SSE
NOSS 0 Rocket 4.3 17:12:01 10° SW 17:18:14 66° WNW 17:24:27 10° NNE
Feng Yun 1-1 Rocket 4.3 17:12:31 10° SSE 17:18:22 85° ENE 17:24:06 10° NNW
Cosmos 1606 2.7 17:15:10 10° S 17:19:03 88° W 17:22:59 10° N
Cosmos 389 Rocket 2.3 17:15:43 10° S 17:19:09 86° E 17:21:16 22° NNE
Cosmos 836 Rocket 4.5 17:14:47 10° SSW 17:20:04 88° ESE 17:25:00 12° NNE
CZ-2C R/B 3.2 17:15:11 10° SE 17:20:05 44° ENE 17:24:46 10° N
CREW DRAGON DEMO-1 DEB 3.8 17:17:59 10° NW 17:20:29 33° N 17:20:29 33° N
Cosmos 2285 Rocket 4.2 17:15:09 10° NNW 17:21:21 47° ENE 17:27:27 10° SE
Cosmos 2333 Rocket 4.0 17:16:57 10° WSW 17:21:43 27° NW 17:26:30 10° N
H-2A R/B 4.0 17:21:32 10° N 17:25:02 27° WNW 17:28:35 10° SW
Cosmos 1867 3.7 17:19:56 10° SSW 17:25:12 56° ESE 17:27:32 32° ENE
SKYMED 2 3.4 17:22:23 13° NNE 17:26:21 76° ESE 17:30:40 10° S
COSMOS 2428 4.3 17:21:50 10° WSW 17:26:53 31° NW 17:31:56 10° N
Meteor 1-20 Rocket 4.2 17:21:16 10° N 17:27:06 65° ENE 17:32:54 10° SSE
Cosmos 1818 4.3 17:27:49 10° NW 17:33:08 53° WSW 17:38:25 10° SSE
SL-8 Rocket 3.9 17:27:33 10° N 17:33:49 80° E 17:40:05 10° S
Cosmos 864 Rocket 4.4 17:28:00 10° N 17:34:18 63° ENE 17:40:30 10° SSE
Lacrosse 5 rocket 2.8 17:31:29 10° S 17:33:15 20° SSE 17:33:15 20° SSE
Cosmos 2278 Rocket 3.6 17:30:50 10° NW 17:36:05 40° WSW 17:41:19 10° S
USA 215 3.4 17:32:16 24° NE 17:36:24 73° NNW 17:42:55 10° WSW
Cosmos 2181 Rocket 3.9 17:30:30 10° S 17:36:56 78° E 17:43:21 10° N
Cosmos 1633 Rocket 2.9 17:32:35 10° N 17:37:00 77° E 17:41:21 10° SSE
CZ-4 R/B 1.2 17:37:52 60° NE 17:37:52 60° NE 17:41:35 10° N
EO 1 Delta rocket 4.2 17:33:38 10° NNE 17:38:50 72° E 17:45:19 10° S
SAR-Lupe-4 3.8 17:40:59 36° N 17:42:18 68° WNW 17:45:51 10° SSW
Meteor 1-25 Rocket 4.1 17:37:45 10° N 17:43:23 83° E 17:49:02 10° SSE
Cosmos 1959 Rocket 4.4 17:37:02 10° N 17:43:25 77° E 17:49:46 10° SSE
CZ-2D R/B 3.4 17:41:31 10° S 17:45:18 72° W 17:49:08 10° NNW
BREEZE-M DEB (TANK) 4.2 17:47:50 10° WSW 17:48:48 22° W 17:48:48 22° W
IRS-1C Rocket 4.5 17:45:30 10° S 17:50:43 65° WSW 17:56:00 10° NNW
Abrixas rocket 4.2 17:49:47 10° W 17:51:40 21° SW 17:51:40 21° SW
Cosmos 1939 Rocket 4.1 17:48:35 10° S 17:52:14 41° W 17:55:56 10° NNW
Cosmos 1689 Rocket 4.1 17:53:49 24° SW 17:53:49 24° SW 17:55:09 10° SSW
CSL-04 Debris 4.2 17:51:53 47° ESE 17:53:05 58° ENE 17:58:29 10° N
ERS-2 4.0 17:50:53 11° N 17:53:54 30° WNW 17:57:07 10° SW
Cosmos 44 3.4 17:49:55 10° NNW 17:55:09 62° NE 17:55:25 61° ENE
DEBRIS 3.9 17:41:38 10° W 17:55:18 63° N 17:56:23 51° NE
SL-08 R/B 4.3 17:53:17 10° N 17:59:26 63° E 18:05:28 10° SSE
ISS -2.2 17:56:43 10° W 17:59:04 34° WNW 17:59:04 34° WNW
CZ-4B R/B 4.1 18:00:04 11° NNW 18:01:56 16° WNW 18:03:58 10° WSW
YAOGAN 1 2.5 18:03:51 81° W 18:03:51 81° W 18:08:11 10° NNW
Cosmos 2237 Rocket 3.5 17:59:16 10° WSW 18:04:27 37° NW 18:08:37 15° N
USA 267 3.3 18:05:49 32° SE 18:09:06 74° SW 18:15:39 10° NW
Okean-O 3.1 18:05:09 10° S 18:09:30 59° WSW 18:13:55 10° NNW
COSMO-SKYMED 1 4.1 18:10:59 14° N 18:14:16 34° WNW 18:18:11 10° SW
Cosmos 2218 Rocket 4.5 18:11:25 10° NNW 18:17:26 58° W 18:23:26 10° S
CSL-04 Rocket 3.6 18:18:45 71° N 18:18:45 71° N 18:23:31 10° NNW
Cosmos 2369 Rocket 3.3 18:13:21 10° NNW 18:16:39 32° N 18:16:39 32° N
H-2A R/B 2.2 18:23:36 63° SSW 18:24:22 75° WSW 18:29:38 10° NNW
Cosmos 1943 Rocket 3.1 18:45:39 10° NNW 18:49:30 43° NW 18:49:30 43° NW
SL-16 R/B 3.2 18:46:08 10° SW 18:51:29 42° WNW 18:51:51 41° NW
USA 215 4.4 19:19:37 36° NNW 19:19:37 36° NNW 19:24:42 10° WNW
